When you browse on this site, cookies collect data to enhance your experience and personalize the content and advertising you see.
Visit our Privacy Policy to learn more. By continuing to use the site, you agree to this use of cookies and data.

Hourly Weather Mihalovka

Today, 7 July, Tuesday

Time Temperature Precipitation Wind Pressure Humidity
00:00 +20°C° 0.4 mm 2 mps 741 mmHg 92%
01:00 +19°C° 0.4 mm 2 mps 741 mmHg 93%
02:00 +19°C° 0 mm 2 mps 741 mmHg 96%
03:00 +19°C° 0.3 mm 3 mps 741 mmHg 96%
04:00 +18°C° 0.3 mm 3 mps 741 mmHg 96%
05:00 +18°C° 0.3 mm 3 mps 741 mmHg 96%
06:00 +18°C° 0.2 mm 4 mps 741 mmHg 95%
07:00 +18°C° 0.2 mm 4 mps 742 mmHg 94%
08:00 +18°C° 0.2 mm 4 mps 742 mmHg 94%
09:00 +16°C° 0.1 mm 5 mps 742 mmHg 92%
10:00 +15°C° 0.1 mm 6 mps 742 mmHg 91%
11:00 +14°C° 0.1 mm 6 mps 743 mmHg 90%
12:00 +14°C° 0.1 mm 6 mps 743 mmHg 88%
13:00 +14°C° 0.1 mm 6 mps 743 mmHg 85%
14:00 +13°C° 0.1 mm 6 mps 743 mmHg 82%
15:00 +13°C° 0 mm 5 mps 743 mmHg 82%
16:00 +13°C° 0 mm 5 mps 743 mmHg 83%
17:00 +13°C° 0 mm 4 mps 743 mmHg 83%
18:00 +13°C° 0 mm 4 mps 744 mmHg 81%
19:00 +13°C° 0 mm 3 mps 744 mmHg 80%
20:00 +13°C° 0 mm 3 mps 744 mmHg 78%
21:00 +12°C° 0.1 mm 3 mps 744 mmHg 81%
22:00 +12°C° 0.1 mm 3 mps 744 mmHg 83%
23:00 +12°C° 0.1 mm 3 mps 744 mmHg 86%

Tomorrow, 8 July, Wednesday

Time Temperature Precipitation Wind Pressure Humidity
00:00 +12°C° 0 mm 3 mps 744 mmHg 88%
01:00 +12°C° 0 mm 3 mps 744 mmHg 90%
02:00 +12°C° 0 mm 4 mps 744 mmHg 92%
03:00 +12°C° 0 mm 4 mps 744 mmHg 91%
04:00 +12°C° 0 mm 4 mps 744 mmHg 91%
05:00 +12°C° 0 mm 4 mps 744 mmHg 91%
06:00 +13°C° 0 mm 4 mps 745 mmHg 87%
07:00 +14°C° 0 mm 4 mps 745 mmHg 84%
08:00 +15°C° 0 mm 4 mps 745 mmHg 81%
09:00 +17°C° 0.1 mm 4 mps 745 mmHg 75%
10:00 +17°C° 0.1 mm 5 mps 745 mmHg 70%
11:00 +19°C° 0.1 mm 5 mps 746 mmHg 65%
12:00 +20°C° 0 mm 5 mps 746 mmHg 62%
13:00 +20°C° 0 mm 5 mps 746 mmHg 58%
14:00 +21°C° 0 mm 4 mps 746 mmHg 55%
15:00 +21°C° 0 mm 4 mps 746 mmHg 56%
16:00 +20°C° 0 mm 4 mps 746 mmHg 57%
17:00 +20°C° 0 mm 3 mps 746 mmHg 58%
18:00 +19°C° 0 mm 3 mps 746 mmHg 65%
19:00 +17°C° 0 mm 3 mps 746 mmHg 73%
20:00 +15°C° 0 mm 2 mps 746 mmHg 80%
21:00 +14°C° 0 mm 2 mps 747 mmHg 84%
22:00 +13°C° 0 mm 2 mps 747 mmHg 89%
23:00 +12°C° 0 mm 2 mps 747 mmHg 93%

Day after tomorrow, 9 July, Thursday

Time Temperature Precipitation Wind Pressure Humidity
00:00 +12°C° 0 mm 2 mps 747 mmHg 94%
01:00 +12°C° 0 mm 2 mps 747 mmHg 95%
02:00 +10°C° 0 mm 2 mps 748 mmHg 96%
03:00 +12°C° 0 mm 2 mps 748 mmHg 94%
04:00 +12°C° 0 mm 2 mps 748 mmHg 93%
05:00 +13°C° 0 mm 2 mps 748 mmHg 92%
06:00 +14°C° 0.1 mm 2 mps 748 mmHg 89%
07:00 +15°C° 0.1 mm 2 mps 748 mmHg 86%
08:00 +16°C° 0.1 mm 2 mps 749 mmHg 83%
09:00 +17°C° 0.5 mm 3 mps 749 mmHg 79%
10:00 +18°C° 0.5 mm 3 mps 749 mmHg 75%
11:00 +19°C° 0.5 mm 3 mps 749 mmHg 71%
12:00 +19°C° 0.4 mm 4 mps 749 mmHg 69%
13:00 +20°C° 0.4 mm 4 mps 749 mmHg 67%
14:00 +20°C° 0.4 mm 4 mps 749 mmHg 66%
15:00 +20°C° 0.2 mm 4 mps 749 mmHg 64%
16:00 +20°C° 0.2 mm 3 mps 749 mmHg 62%
17:00 +20°C° 0.2 mm 3 mps 749 mmHg 61%
18:00 +19°C° 0 mm 3 mps 749 mmHg 67%
19:00 +17°C° 0 mm 2 mps 749 mmHg 73%
20:00 +15°C° 0 mm 2 mps 750 mmHg 79%
21:00 +15°C° 0 mm 2 mps 750 mmHg 82%
22:00 +14°C° 0 mm 2 mps 750 mmHg 86%
23:00 +13°C° 0 mm 2 mps 750 mmHg 90%

10 July, Friday

Time Temperature Precipitation Wind Pressure Humidity
00:00 +12°C° 0 mm 2 mps 751 mmHg 91%
01:00 +12°C° 0 mm 2 mps 751 mmHg 91%
02:00 +10°C° 0 mm 2 mps 751 mmHg 92%
03:00 +12°C° 0 mm 1 mps 751 mmHg 91%
04:00 +12°C° 0 mm 1 mps 751 mmHg 91%
05:00 +12°C° 0 mm 1 mps 751 mmHg 91%
06:00 +14°C° 0 mm 1 mps 752 mmHg 84%
07:00 +16°C° 0 mm 1 mps 752 mmHg 77%
08:00 +18°C° 0 mm 2 mps 752 mmHg 71%
09:00 +19°C° 0 mm 2 mps 752 mmHg 67%
10:00 +20°C° 0 mm 3 mps 752 mmHg 63%
11:00 +22°C° 0 mm 3 mps 752 mmHg 60%
12:00 +22°C° 0 mm 4 mps 751 mmHg 59%
13:00 +23°C° 0 mm 4 mps 751 mmHg 58%
14:00 +23°C° 0 mm 4 mps 751 mmHg 57%
15:00 +23°C° 0 mm 4 mps 751 mmHg 59%
16:00 +23°C° 0 mm 4 mps 750 mmHg 61%
17:00 +23°C° 0 mm 4 mps 750 mmHg 63%
18:00 +22°C° 0 mm 4 mps 750 mmHg 68%
19:00 +21°C° 0 mm 4 mps 750 mmHg 74%
20:00 +19°C° 0 mm 4 mps 749 mmHg 80%
21:00 +19°C° 0 mm 4 mps 749 mmHg 79%
22:00 +19°C° 0 mm 4 mps 749 mmHg 78%
23:00 +19°C° 0 mm 5 mps 749 mmHg 77%

11 July, Saturday

Time Temperature Precipitation Wind Pressure Humidity
00:00 +19°C° 0 mm 5 mps 749 mmHg 79%
01:00 +17°C° 0 mm 5 mps 749 mmHg 81%
02:00 +17°C° 0 mm 5 mps 749 mmHg 82%
03:00 +17°C° 0 mm 5 mps 748 mmHg 85%
04:00 +17°C° 0 mm 5 mps 748 mmHg 87%
05:00 +17°C° 0 mm 5 mps 748 mmHg 89%
06:00 +19°C° 0 mm 5 mps 748 mmHg 86%
07:00 +21°C° 0 mm 5 mps 748 mmHg 83%
08:00 +22°C° 0 mm 5 mps 748 mmHg 80%
09:00 +23°C° 0.3 mm 5 mps 748 mmHg 80%
10:00 +23°C° 0.3 mm 4 mps 748 mmHg 80%
11:00 +25°C° 0.3 mm 4 mps 749 mmHg 80%
12:00 +23°C° 0.9 mm 4 mps 749 mmHg 80%
13:00 +22°C° 0.9 mm 4 mps 749 mmHg 80%
14:00 +21°C° 0.9 mm 4 mps 749 mmHg 80%
15:00 +21°C° 0 mm 4 mps 749 mmHg 75%
16:00 +21°C° 0 mm 3 mps 749 mmHg 71%
17:00 +21°C° 0 mm 3 mps 749 mmHg 66%
18:00 +19°C° 0 mm 3 mps 749 mmHg 69%
19:00 +18°C° 0 mm 3 mps 749 mmHg 71%
20:00 +17°C° 0 mm 2 mps 749 mmHg 74%
21:00 +16°C° 0 mm 2 mps 749 mmHg 76%
22:00 +15°C° 0 mm 2 mps 750 mmHg 77%
23:00 +14°C° 0 mm 2 mps 750 mmHg 79%

12 July, Sunday

Time Temperature Precipitation Wind Pressure Humidity
00:00 +14°C° 0 mm 3 mps 750 mmHg 78%
01:00 +14°C° 0 mm 3 mps 750 mmHg 77%
02:00 +14°C° 0 mm 3 mps 750 mmHg 76%
03:00 +13°C° 0.9 mm 4 mps 750 mmHg 82%
04:00 +13°C° 0.9 mm 4 mps 750 mmHg 88%
05:00 +12°C° 0.9 mm 4 mps 750 mmHg 95%
06:00 +12°C° 1.7 mm 4 mps 750 mmHg 95%
07:00 +11°C° 1.7 mm 3 mps 750 mmHg 96%
08:00 +11°C° 1.7 mm 3 mps 750 mmHg 96%
09:00 +11°C° 2.1 mm 3 mps 750 mmHg 96%
10:00 +11°C° 2.1 mm 3 mps 750 mmHg 95%
11:00 +11°C° 2.1 mm 3 mps 750 mmHg 94%
12:00 +12°C° 1.2 mm 3 mps 750 mmHg 93%
13:00 +13°C° 1.2 mm 2 mps 750 mmHg 92%
14:00 +13°C° 1.2 mm 2 mps 750 mmHg 91%
15:00 +14°C° 0.2 mm 2 mps 750 mmHg 90%
16:00 +14°C° 0.2 mm 1 mps 750 mmHg 88%
17:00 +15°C° 0.2 mm 1 mps 750 mmHg 86%
18:00 +14°C° 0.1 mm 1 mps 750 mmHg 89%
19:00 +13°C° 0.1 mm 1 mps 750 mmHg 91%
20:00 +13°C° 0.1 mm 1 mps 749 mmHg 94%
21:00 +12°C° 0 mm 1 mps 749 mmHg 94%
22:00 +12°C° 0 mm 1 mps 749 mmHg 95%
23:00 +11°C° 0 mm 1 mps 749 mmHg 95%
Show more